Retour au catalogue

CZ-6A DEB

ActifPO
NORAD 61402·DEBRIS·🇨🇳 China

Lancé Aug 6, 2024 depuis Taiyuan Satellite Launch Center

Loading…

Prochains Passages (prochaines 24 heures)

TLE

FraisSource: Space-Track

Époque: Sep 13, 2026, 04:45 UTC

1 61402U 24140XT  26256.19800812  .00017938  00000-0  47639-3 0  9994
2 61402  89.7035 324.0041 0159486  39.0872 322.1771 15.26171238110598

Suivez CZ-6A DEB en temps réel avec AllMySat

Download on the App Store